Hourly Data Report for August 15, 2017

PITT MEADOWS CS
BRITISH COLUMBIA

49°12'29.964" N
122°41'24.076" W
5.00 m
1106178
71775
WMM

Download Data

Hourly Data (August 2017)
Hourly Data Report for August 15, 2017
TIME
LST
Temp Definition
°C
Dew Point Definition
°C
Rel Hum Definition
%
Precip. Amount Definition
mm

Wind Dir Definition
10's deg

Wind Spd Definition
km/h
Visibility Definition
km
Stn Press Definition
kPa
Hmdx Definition


Wind Chill Definition


Weather Definition


00:00 13.6 11.1 85 0.0 9 4   101.29     LegendNANA
01:00 13.3 11.4 88 0.0 12 2   101.31     LegendNANA
02:00 12.9 11.1 89 0.0 32 2   101.33     LegendNANA
03:00 12.1 10.8 92 0.0 0 1   101.33     LegendNANA
04:00 11.7 10.5 92 0.0   0   101.34     LegendNANA
05:00 11.5 10.4 93 0.0   0   101.36     LegendNANA
06:00 12.6 11.1 91 0.0 8 1   101.41     LegendNANA
07:00 15.1 11.9 81 0.0 13 4   101.43     LegendNANA
08:00 16.8 11.1 69 0.0 9 2   101.44     LegendNANA
09:00 18.2 11.4 64 0.0 19 3   101.45     LegendNANA
10:00 19.7 10.0 53 0.0 24 5   101.45     LegendNANA
11:00 21.6 11.9 54 0.0 26 7   101.45     LegendNANA
12:00 22.5 11.8 51 0.0 25 10   101.44 25   LegendNANA
13:00 23.0 11.0 47 0.0 24 7   101.43 25   LegendNANA
14:00 24.6 10.2 40 0.0 27 12   101.41 26   LegendNANA
15:00 23.8 9.6 41 0.0 25 11   101.39 25   LegendNANA
16:00 25.1 11.2 42 0.0 23 6   101.37 27   LegendNANA
17:00 23.9 10.3 42 0.0 19 8   101.37 25   LegendNANA
18:00 22.5 10.3 46 0.0 22 7   101.37     LegendNANA
19:00 21.1 11.1 53 0.0 16 5   101.39     LegendNANA
20:00 19.8 11.3 58 0.0 20 3   101.45     LegendNANA
21:00 17.6 11.7 68 0.0   0   101.51     LegendNANA
22:00 16.1 12.2 78 0.0 12 3   101.53     LegendNANA
23:00 15.8 12.3 80 0.0 6 4   101.57     LegendNANA

Notes on Data Quality.

Legend

  • E = Estimated
  • M = Missing
  • NA = Not Available*
  • [empty] = Indicates an unobserved value
Date modified: